This is the latest recevied weather packets stored in our database for station/object K3RTA-2. If no packets are shown the sender has not sent any weather packets the latest 10 day(s).
| Time | Temp. | Humidity | Pressure | Rain* | Wind** | Luminosity | Snow |
|---|---|---|---|---|---|---|---|
| 1777570204 | 18.89° C | 71% | 1007.5 hPa | 0 mm | - | - | - |
| 1777566904 | 17.78° C | 68% | 1007.9 hPa | 0 mm | - | - | - |
| 1777566304 | 18.33° C | 68% | 1007.9 hPa | 0 mm | - | - | - |
| 1777566004 | 17.78° C | 70% | 1008 hPa | 0 mm | - | - | - |
| 1777562104 | 16.67° C | 77% | 1008.2 hPa | 0 mm | - | - | - |
| 1777560304 | 16.67° C | 79% | 1008.4 hPa | 0 mm | - | - | - |
| 1777558804 | 16.11° C | 81% | 1008.6 hPa | 0 mm | - | - | - |
| 1777558504 | 16.11° C | 80% | 1008.5 hPa | 0 mm | - | - | - |
| 1777558205 | 16.11° C | 81% | 1008.6 hPa | 0 mm | - | - | - |
| 1777555804 | 15.56° C | 85% | 1008.2 hPa | 0 mm | - | - | - |
| 1777555504 | 15° C | 85% | 1008.4 hPa | 0 mm | - | - | - |
| 1777555205 | 15° C | 86% | 1008 hPa | 0 mm | - | - | - |
| 1777553705 | 13.89° C | 88% | 1008 hPa | 0 mm | - | - | - |
| 1777551605 | 13.33° C | 93% | 1008 hPa | 0 mm | - | - | - |
| 1777549505 | 11.67° C | 96% | 1007.6 hPa | 0 mm | - | - | - |
| 1777549204 | 11.67° C | 97% | 1007.7 hPa | 0 mm | - | - | - |
| 1777545605 | 9.44° C | 97% | 1007.3 hPa | 0 mm | - | - | - |
| 1777542605 | 9.44° C | 97% | 1007.2 hPa | 0 mm | - | - | - |
| 1777541404 | 9.44° C | 97% | 1006.9 hPa | 0 mm | - | - | - |
| 1777541105 | 9.44° C | 97% | 1006.9 hPa | 0 mm | - | - | - |
| 1777540505 | 9.44° C | 96% | 1006.9 hPa | 0 mm | - | - | - |
| 1777538105 | 10° C | 96% | 1006.6 hPa | 0 mm | - | - | - |
| 1777537205 | 10.56° C | 95% | 1006.7 hPa | 0 mm | - | - | - |
| 1777533304 | 11.11° C | 94% | 1006.8 hPa | 1.02 mm | - | - | - |
| 1777529704 | 12.22° C | 88% | 1006.9 hPa | 0 mm | - | - | - |
* Rain latest hour (hover to see other rain measurements)
** Current wind speed in m/s (hover to see current wind gust speed)